Wind_Speed
51 54 57 56 57 57 58 60 61 60 53 58 59 59 56 58 63 63 65 68 68 68 65 67 63 59 62 63 65 63 56 50 42 41 44 31 31 35 37 39 42 42 40 42
49 53 48 56 56 57 58 58 62 62 57 56 58 62 62 59 62 64 64 63 63 63 62 62 60 59 62 65 66 66 59 54 44 41 49 38 37 40 43 45 45 45 45 45
44 39 47 51 54 58 58 58 59 58 53 48 52 62 67 66 56 57 64 64 62 62 59 59 57 54 59 65 67 64 60 54 42 48 44 40 43 45 46 44 46 46 49 46
44 35 40 42 36 37 47 42 44 46 48 54 48 57 58 65 54 42 55 69 65 62 56 54 48 51 50 52 59 65 63 58 55 47 47 47 47 48 47 44 45 46 46 41
29 37 34 39 41 42 39 37 41 41 52 44 52 57 60 55 48 47 49 50 68 61 61 55 49 50 50 54 47 47 54 54 41 39 48 49 47 52 49 50 43 40 43 40
36 26 31 40 43 42 38 50 46 46 42 49 56 51 55 58 52 55 53 50 61 59 56 56 53 52 54 50 40 42 42 41 43 42 42 44 36 31 41 45 31 38 36 36
46 41 37 32 35 40 38 30 44 47 47 49 47 53 55 51 56 54 42 45 45 54 53 53 49 50 49 48 41 38 34 40 41 42 41 40 37 35 32 28 35 31 36 41
45 42 38 38 38 36 44 44 41 42 36 38 42 47 47 45 51 42 44 44 48 49 55 53 52 47 47 44 43 43 36 40 44 44 42 42 44 37 32 42 41 45 42 41
34 28 29 31 37 44 35 46 49 49 46 46 29 29 25 24 41 48 50 47 47 45 44 56 50 50 50 46 42 39 40 37 39 37 38 43 45 43 42 39 40 39 42 45
17 14 22 31 31 33 36 34 41 48 52 52 52 35 28 28 35 39 46 52 45 45 44 46 54 48 49 49 46 43 42 40 40 43 43 42 42 40 39 38 39 43 45 41
21 25 20 14 24 31 39 41 43 39 48 40 45 34 35 31 30 45 49 52 41 41 36 42 40 47 45 45 45 44 42 42 42 43 42 43 42 40 40 41 45 44 41 38
25 20 22 18 16 25 23 37 44 37 38 40 34 37 32 31 41 36 47 49 42 36 45 39 39 38 46 45 40 38 40 44 41 41 44 43 42 42 43 47 44 40 36 35
22 18 19 9 9 17 13 22 40 32 32 34 46 37 37 36 27 39 48 49 48 49 51 46 41 36 36 37 38 41 40 41 38 44 43 44 42 45 46 44 39 36 34 34
19 16 18 16 16 15 13 15 33 19 28 28 44 38 36 24 32 25 41 50 46 50 53 53 49 38 36 35 35 35 38 41 45 46 45 44 44 45 42 36 35 33 32 28
16 19 17 13 12 16 12 18 24 26 24 28 23 25 34 10 30 35 44 45 40 38 40 43 44 47 42 38 38 41 42 43 46 45 44 44 43 40 37 34 33 30 26 24
16 14 15 12 14 11 10 16 21 18 19 19 24 26 29 25 13 15 36 41 33 21 25 36 39 42 45 42 41 40 43 44 43 42 40 39 38 35 32 29 28 25 23 25
7 13 13 5 14 13 5 17 20 21 19 16 23 21 18 27 29 16 22 31 28 23 27 36 44 51 49 47 44 40 39 38 39 40 39 37 33 29 26 26 23 22 23 26
3 8 10 6 10 12 7 16 15 17 14 18 14 15 15 22 20 18 18 16 26 33 33 35 47 63 58 51 45 43 38 41 42 42 34 30 28 28 27 24 22 23 25 28
4 7 4 9 3 8 8 14 19 21 20 17 13 17 11 15 20 11 17 24 29 29 34 42 49 46 42 49 39 36 39 41 38 33 32 31 30 29 27 26 25 26 27 31
3 8 13 2 1 9 13 20 18 15 15 14 12 15 7 9 9 9 11 15 19 26 41 23 37 45 34 31 39 44 47 39 31 30 31 30 30 29 29 32 30 28 28 35
4 1 2 7 15 13 21 20 21 18 15 11 16 20 11 2 1 7 11 14 17 20 20 24 21 23 30 32 29 26 25 26 29 30 30 30 30 31 35 34 30 29 30 26
3 4 6 16 16 18 21 15 18 14 12 10 21 16 19 11 3 7 14 14 15 16 18 22 20 20 24 27 24 21 25 28 30 31 31 32 35 33 35 35 29 19 19 18
5 7 9 8 11 21 16 11 9 12 15 14 12 22 8 11 13 12 13 17 16 15 16 17 19 24 24 23 24 24 25 28 31 32 34 34 34 27 23 21 21 20 17 19
4 4 4 8 9 9 7 7 9 4 8 9 10 16 10 13 18 18 16 16 16 17 17 18 18 21 23 24 24 25 27 26 27 32 35 31 31 22 22 19 19 19 18 22
6 6 7 6 8 9 10 9 6 5 7 6 19 20 13 17 20 16 18 19 13 17 21 20 22 21 22 20 24 26 26 26 25 22 25 29 27 29 27 23 21 20 23 22
18 12 4 6 5 8 8 5 3 4 5 11 9 22 20 17 17 11 16 13 10 9 21 22 22 18 20 22 24 25 25 25 25 26 21 21 21 25 22 20 19 21 20 22
Wind_Direction
259 251 265 256 251 251 248 246 247 249 243 243 247 249 248 245 241 240 237 236 241 241 242 247 247 243 241 245 251 254 252 250 252 266 247 239 246 251 253 253 257 261 266 272
255 260 255 248 249 247 248 249 246 246 245 238 235 240 241 243 245 240 240 240 237 238 240 242 243 242 244 242 246 251 255 258 257 251 250 250 252 253 255 257 261 265 267 272
264 259 255 254 250 249 252 252 249 250 247 246 244 239 234 236 237 240 239 237 239 236 234 237 240 241 241 241 242 247 250 248 241 252 256 253 254 254 257 260 261 265 269 273
261 249 251 250 249 248 248 249 252 250 249 246 230 236 240 238 232 226 239 240 235 237 236 236 236 235 235 241 242 244 249 251 253 256 255 253 253 256 256 259 263 267 270 278
266 252 243 243 243 236 233 239 231 240 243 241 243 230 232 231 228 217 230 237 238 233 235 235 233 231 227 241 237 242 246 250 253 253 252 250 244 248 249 257 262 262 270 261
267 243 248 246 240 226 242 229 231 233 233 235 238 241 235 225 227 222 226 234 244 240 237 235 232 231 228 234 246 241 242 244 252 252 252 257 270 269 245 246 268 255 260 264
261 256 248 263 262 239 238 254 247 241 234 235 247 240 242 237 224 225 220 226 234 240 234 231 234 234 233 232 239 240 240 240 242 249 253 254 256 258 258 259 258 258 261 270
264 248 250 254 244 234 231 239 247 254 252 250 241 239 250 233 231 227 222 230 235 237 238 231 224 227 230 226 232 234 234 237 238 241 247 245 246 244 255 251 253 256 266 267
260 248 226 245 245 233 225 229 233 245 252 248 253 237 254 241 228 226 227 229 236 234 223 229 228 223 228 225 228 233 234 232 234 236 241 242 243 241 246 250 252 258 260 263
243 262 240 231 236 248 243 230 229 232 239 246 238 259 233 224 217 215 215 224 226 234 238 228 227 225 228 229 229 230 232 232 229 232 233 237 242 243 247 250 253 254 258 266
250 246 240 231 237 244 246 250 247 240 236 243 241 232 235 231 227 207 202 213 218 222 218 225 227 221 221 225 227 229 231 231 231 232 232 233 237 241 244 247 249 255 261 267
242 249 228 235 243 231 240 252 240 234 238 241 225 218 225 223 211 213 183 187 198 200 217 225 224 221 220 222 226 229 230 230 228 228 231 232 234 238 241 245 251 258 264 267
232 231 217 231 227 231 252 242 233 233 228 199 218 225 223 222 198 188 185 190 192 205 218 225 227 226 229 228 230 227 229 232 226 226 228 231 233 235 240 245 252 256 260 264
245 238 228 240 251 243 224 250 220 206 198 201 222 226 220 214 199 169 184 197 203 209 214 221 227 228 221 222 220 218 221 216 217 221 224 227 232 236 241 246 249 255 259 257
221 226 238 245 245 248 213 212 199 198 208 212 212 227 222 217 181 193 197 199 196 211 218 223 220 222 220 218 214 211 211 213 215 217 220 224 230 235 239 243 249 250 252 253
229 231 230 239 267 259 239 206 229 236 223 219 217 225 239 245 179 190 219 190 193 200 206 203 218 214 208 209 213 216 215 214 215 219 222 226 230 233 238 242 245 248 250 259
262 248 249 269 271 279 247 237 228 233 218 240 217 235 236 234 215 208 196 206 205 226 219 211 210 213 209 208 210 214 216 217 215 217 221 225 229 231 237 241 248 252 263 272
241 268 274 269 272 273 223 229 210 212 212 227 233 229 257 240 261 225 218 219 232 238 228 220 212 208 209 206 208 215 213 213 215 216 218 219 225 232 239 244 252 256 269 273
293 303 291 245 254 164 183 179 174 164 179 191 192 220 251 209 222 247 231 235 225 226 227 214 211 204 194 200 212 210 209 210 209 209 213 220 227 236 245 250 255 261 268 271
1 253 256 257 267 189 172 169 166 168 156 154 163 183 178 95 144 170 181 204 207 214 216 210 193 206 217 205 209 203 195 198 202 210 219 226 235 243 251 256 255 258 263 269
171 93 42 77 79 79 167 169 158 166 169 192 186 202 205 66 314 196 197 200 197 209 226 191 185 193 204 189 188 194 195 201 213 221 228 236 243 248 253 257 260 263 268 266
4 59 70 98 87 138 162 174 170 203 193 192 171 181 205 230 209 210 206 213 211 194 194 193 197 190 193 199 210 213 212 218 225 231 235 241 247 252 249 272 256 251 262 269
73 91 96 123 121 154 163 165 202 217 244 214 162 166 159 187 197 209 219 220 207 204 203 194 200 206 206 212 219 227 234 235 236 240 246 252 257 263 243 230 240 247 252 262
67 66 133 154 150 153 177 181 186 230 262 222 201 166 164 170 175 188 198 217 222 212 213 205 212 206 209 214 223 229 236 236 244 248 256 252 261 235 227 237 243 238 255 265
54 89 114 147 166 156 161 181 212 111 122 125 194 208 212 190 184 189 198 199 194 214 219 221 214 207 208 226 222 239 242 236 244 242 234 247 237 201 210 234 230 246 258 264
64 37 54 150 149 177 172 180 132 174 139 165 154 153 167 182 185 188 201 198 207 212 187 202 196 221 218 211 214 229 240 247 239 233 244 243 210 203 215 228 241 252 259 268
Height
5687 5687 5697 5697 5697 5702 5703 5706 5709 5720 5725 5727 5730 5740 5746 5752 5759 5764 5770 5779 5786 5793 5803 5805 5817 5827 5829 5830 5830 5835 5846 5856 5860 5865 5873 5873 5876 5880 5882 5884 5883 5886 5887 5885
5666 5670 5683 5677 5680 5684 5686 5689 5694 5702 5707 5706 5713 5718 5730 5733 5737 5748 5755 5763 5774 5781 5790 5798 5805 5813 5815 5824 5823 5824 5834 5842 5852 5857 5865 5863 5868 5871 5872 5873 5876 5879 5880 5878
5651 5662 5658 5660 5666 5668 5670 5674 5681 5686 5692 5694 5699 5700 5708 5715 5721 5728 5737 5748 5757 5766 5776 5786 5794 5802 5803 5808 5816 5821 5828 5839 5830 5848 5849 5854 5858 5862 5865 5867 5866 5867 5868 5868
5633 5645 5646 5647 5648 5655 5658 5666 5669 5672 5674 5675 5688 5683 5695 5703 5708 5714 5722 5731 5743 5754 5767 5775 5783 5785 5793 5797 5805 5809 5815 5823 5832 5836 5840 5845 5850 5851 5853 5855 5856 5857 5857 5858
5626 5626 5629 5634 5637 5642 5644 5652 5652 5654 5658 5660 5667 5672 5680 5692 5698 5704 5709 5717 5729 5745 5752 5761 5770 5774 5782 5787 5797 5803 5806 5810 5818 5827 5829 5832 5835 5837 5842 5845 5847 5848 5850 5849
5614 5618 5619 5624 5628 5631 5633 5636 5641 5643 5647 5642 5654 5661 5667 5680 5689 5692 5700 5708 5719 5733 5741 5750 5758 5762 5770 5777 5788 5796 5799 5805 5811 5816 5820 5822 5821 5827 5830 5834 5840 5838 5841 5842
5601 5606 5611 5612 5616 5624 5625 5626 5629 5632 5635 5633 5649 5649 5656 5676 5682 5687 5696 5703 5708 5716 5728 5739 5747 5753 5762 5771 5779 5787 5793 5797 5804 5808 5812 5816 5820 5824 5824 5827 5829 5832 5833 5834
5587 5593 5601 5606 5606 5609 5615 5618 5620 5620 5627 5633 5638 5634 5644 5665 5676 5681 5687 5695 5701 5707 5716 5727 5737 5742 5751 5761 5769 5777 5784 5789 5795 5799 5804 5808 5811 5816 5818 5818 5821 5823 5825 5824
5578 5579 5588 5593 5594 5598 5607 5608 5613 5614 5618 5621 5622 5633 5641 5649 5658 5668 5674 5682 5686 5695 5704 5714 5724 5732 5738 5751 5761 5767 5774 5779 5784 5790 5793 5797 5800 5804 5808 5810 5813 5816 5814 5813
5570 5569 5579 5585 5587 5590 5594 5604 5605 5604 5606 5612 5620 5626 5628 5635 5641 5648 5661 5673 5678 5686 5695 5703 5711 5724 5729 5739 5750 5758 5764 5769 5775 5778 5782 5786 5791 5794 5798 5802 5805 5805 5806 5808
5562 5565 5576 5580 5584 5587 5587 5589 5593 5597 5600 5606 5614 5617 5624 5628 5634 5633 5642 5660 5670 5673 5682 5690 5702 5712 5720 5728 5740 5747 5754 5759 5764 5768 5773 5779 5782 5785 5788 5791 5792 5796 5799 5802
5560 5563 5568 5576 5576 5577 5580 5582 5585 5589 5596 5598 5603 5609 5614 5620 5623 5630 5635 5649 5657 5664 5673 5682 5692 5701 5709 5721 5731 5738 5743 5747 5754 5760 5764 5767 5771 5776 5779 5781 5785 5789 5792 5794
5557 5559 5564 5570 5571 5573 5573 5573 5579 5583 5589 5591 5596 5598 5606 5611 5615 5624 5631 5638 5647 5657 5665 5673 5681 5690 5700 5713 5722 5728 5733 5738 5745 5748 5754 5758 5763 5766 5770 5775 5780 5784 5785 5786
5552 5557 5561 5565 5565 5566 5567 5568 5569 5575 5583 5589 5587 5594 5600 5605 5610 5596 5619 5633 5643 5651 5658 5666 5674 5683 5692 5700 5709 5716 5722 5727 5733 5738 5744 5749 5753 5758 5764 5770 5773 5776 5777 5778
5551 5554 5557 5561 5563 5564 5566 5569 5573 5577 5581 5581 5593 5596 5597 5600 5609 5616 5624 5630 5633 5647 5655 5663 5668 5672 5681 5689 5697 5703 5709 5717 5723 5729 5736 5741 5748 5754 5759 5762 5767 5768 5769 5769
5548 5552 5556 5559 5560 5563 5567 5570 5572 5575 5579 5585 5590 5594 5600 5598 5603 5609 5617 5625 5633 5642 5648 5653 5657 5664 5670 5678 5686 5694 5701 5709 5717 5723 5729 5736 5741 5746 5752 5756 5759 5760 5761 5761
5551 5553 5555 5560 5560 5562 5567 5566 5571 5574 5579 5586 5592 5597 5600 5601 5606 5610 5614 5625 5629 5635 5639 5644 5647 5650 5659 5668 5678 5688 5696 5705 5709 5715 5721 5728 5734 5741 5746 5748 5750 5752 5753 5754
5552 5553 5555 5559 5559 5560 5563 5562 5568 5574 5579 5582 5589 5595 5601 5601 5603 5609 5615 5618 5624 5628 5633 5638 5641 5622 5649 5662 5672 5682 5691 5696 5702 5709 5716 5724 5730 5735 5738 5741 5743 5746 5748 5748
5554 5555 5556 5557 5557 5560 5561 5564 5568 5570 5577 5584 5593 5597 5600 5605 5606 5604 5611 5615 5622 5624 5624 5630 5635 5643 5633 5661 5670 5679 5687 5694 5701 5707 5712 5718 5724 5728 5731 5734 5737 5740 5741 5740
5555 5557 5559 5557 5557 5560 5565 5568 5573 5577 5581 5585 5592 5598 5603 5602 5603 5606 5610 5614 5621 5623 5618 5624 5632 5644 5645 5659 5667 5673 5679 5688 5695 5701 5708 5713 5718 5722 5726 5728 5730 5731 5732 5731
5559 5558 5557 5558 5557 5559 5567 5571 5575 5579 5587 5586 5591 5597 5601 5603 5606 5605 5609 5616 5622 5625 5627 5634 5638 5644 5652 5656 5665 5672 5679 5686 5692 5698 5704 5709 5712 5716 5718 5720 5723 5724 5725 5724
5559 5559 5557 5558 5561 5567 5570 5574 5577 5578 5578 5584 5590 5595 5602 5601 5604 5607 5609 5615 5618 5625 5630 5635 5637 5645 5654 5661 5666 5671 5677 5684 5689 5694 5699 5702 5705 5708 5711 5714 5716 5717 5719 5719
5561 5562 5562 5565 5567 5570 5574 5576 5578 5581 5582 5584 5588 5593 5596 5600 5604 5608 5610 5615 5620 5623 5628 5634 5640 5647 5653 5659 5665 5670 5675 5679 5684 5689 5691 5694 5699 5702 5705 5707 5710 5711 5713 5714
5560 5562 5565 5568 5570 5572 5574 5578 5580 5581 5583 5584 5586 5591 5597 5601 5605 5609 5612 5614 5617 5623 5628 5633 5638 5643 5649 5656 5661 5666 5670 5674 5677 5682 5685 5687 5691 5695 5700 5701 5704 5707 5708 5708
5562 5564 5565 5567 5569 5573 5576 5578 5580 5581 5583 5586 5586 5592 5597 5602 5606 5609 5611 5615 5618 5619 5623 5630 5636 5642 5647 5652 5657 5660 5664 5667 5671 5674 5678 5681 5684 5688 5695 5699 5700 5701 5702 5702
5565 5564 5566 5569 5570 5573 5577 5579 5580 5583 5585 5587 5589 5593 5598 5604 5608 5610 5612 5615 5617 5619 5622 5628 5634 5639 5645 5649 5653 5655 5658 5660 5663 5668 5672 5676 5679 5683 5689 5692 5694 5695 5695 5695